Location: Izdebno
(52.6670°N, 16.2170°E)
Time: 04:19:00
(UTC+02:00)

A-11 Canister half - Pass Details

Date: 11 February 2023
Orbit: 1526 x 1682 km, 47.3° (Epoch: 24 March)

Event Time Altitude Azimuth Distance (km) Brightness Sun altitude
Rises 05:02:27 0° 242° (WSW) 4,683 - -21.3°
Reaches altitude 10° 05:05:33 10° 239° (WSW) 3,694 - -20.8°
Exits shadow 05:08:20 22° 233° (SW) 2,856 9.9 -20.4°
Maximum altitude 05:14:32 57° 164° (SSE) 1,755 9.3 -19.5°
Drops below altitude 10° 05:23:36 10° 89° (E) 3,727 12.3 -18.1°
Sets 05:26:45 0° 86° (E) 4,726 13.3 -17.6°
